Location: Dobrzeń Wielki
(50.7693°N, 17.8414°E)
Time: 08:37:03
(UTC+01:00)

Envisat - Pass Details

Date: 21 October 2019
Orbit: 764 x 766 km, 98.1° (Epoch: 19 November)

Event Time Altitude Azimuth Distance (km) Brightness Sun altitude
Rises 18:53:06 0° 170° (S) 3,222 6.2 -11.4°
Reaches altitude 10° 18:55:25 10° 173° (S) 2,300 5.4 -11.8°
Maximum altitude 19:00:28 70° 257° (WSW) 816 3.3 -12.6°
Drops below altitude 10° 19:05:34 10° 342° (NNW) 2,316 5.7 -13.4°
Sets 19:07:54 0° 345° (NNW) 3,247 6.5 -13.8°
